User: anonymous   Login
Location: Unspecified
(0.0000°N, 0.0000°E)
Time: 06:22:33
(UTC+00:00)
Language:

AO-7 - Orbit

View from above orbital plane
View from above orbital plane
View from above satellite
View from above satellite

Ground track
Ground track

The orbit data is extracted from the following two-line orbital elements,

1  7530U 74089B   18267.91860757 -.00000043 +00000-0 +91047-5 0  9994
2  7530 101.6994 233.7861 0012216 140.6070 242.2140 12.53634551006856
Epoch (UTC): 24 September 2018 22:02:47
Eccentricity: 0.0012216
inclination: 101.6994°
perigee height: 1440 km
apogee height: 1459 km
right ascension of ascending node: 233.7861°
argument of perigee: 140.6070°
revolutions per day: 12.53634551
mean anomaly at epoch: 242.2140°
orbit number at epoch: 685

The dashed part of the orbit path shows where the satellite is in the earth's shadow,  

DLR